Szczecin, Polen

08:23 AM CEST am 01. Mai 2017 (GMT +0200)
Goleniow

Wetter Verlauf für EPSC - April, 2017

Change the Weather History Date:

Freitag, April 21, 2017

  Actual Average Record
Temperature  
mittlereTemperatur 48 °F -  
Max. Temperatur 56 °F 61 °F 71 °F (2011)
Min.Temperatur 41 °F 41 °F 19 °F (2005)
Degree Days  
Heizgradtage 16    
Moisture  
Taupunkt 39 °F    
Average Humidity 70    
Maximum Humidity 87    
Minimum Humidity 48    
Niederschlag  
Niederschlag 0.03 inch - - ()
Luftdruck in Meereshöhe  
Luftdruck in Meereshöhe 30.15 inch    
Wind  
Windgeschwindigkeit 8 mph ()    
Max. Windgeschwindigkeit 17 mph    
Max Gust Speed 29 mph    
Sichtweite 7.0 Meilen    
Ereignisse Regen    
Averages and records for this station are not official NWS values.
T = Trace of Precipitation, MM = Missing Value Source: Averaged Metar Reports

Daily Weather History Graph

Daily Weather History Graph

Search for Another Location

Airport or City:

Trip Planner

Search our weather history database for the weather conditions in past years. The results will help you decide how hot, cold, wet, or windy it might be!

Date:

Astronomie

Apr. 21, 2017 Aufgang Untergang
Genaue Zeit 05:48 CEST 20:13 CEST
Bürgerliche Dämmerung 05:09 CEST 20:51 CEST
Nautische Dämmerung 04:21 CEST 21:41 CEST
Astronomische Dämmerung 03:22 CEST 22:40 CEST
Mond 03:51 CEST (4/21) 13:43 CEST (4/21)
Länge des sichtbaren Lichts 15h 41m
Tageslänge
14h 24m
Letztes Viertel, 30% of the Moon is Illuminated
Apr 21
Letztes Viertel
Apr 26
Neu
Mai 3
Erstes Viertel
Mai 10
Vollmond
Mai 19
Letztes Viertel

Hourly Weather History & Observations

Zeit (CEST) Temp. Windchill Taupunkt Feuchtigkeit Druck Sichtweite Wind Dir Windgeschwindigkeit Böengeschwindigkeit Precip Ereignisse Wetterzustand
12:00 AM 42 °F - 31 °F 55% 30.40 inch 14 mi Süd-Südwest 8.9 mph - -   Teils Wolkig
12:00 AM 41.0 °F 39.0 °F 33.8 °F 76% 30.36 inch - Süd-Südwest 3.5 mph - N/A   Heiter
12:30 AM 41.0 °F 38.0 °F 33.8 °F 76% 30.36 inch - Süd-Südwest 4.6 mph - N/A   Heiter
1:00 AM 42 °F - 30 °F 52% 30.39 inch 22 mi Südwest 8.9 mph - -   Teils Wolkig
1:00 AM 42.8 °F 39.3 °F 32.0 °F 66% 30.36 inch 6.2 mi Süd-Südwest 5.8 mph - N/A   Wolkig
1:30 AM 42.8 °F 40.1 °F 32.0 °F 66% 30.33 inch 6.2 mi Südwest 4.6 mph - N/A   Wolkig
2:00 AM 42 °F - 30 °F 51% 30.36 inch 22 mi Südwest 8.9 mph - -   Teils Wolkig
2:00 AM 42.8 °F 38.6 °F 30.2 °F 61% 30.33 inch 6.2 mi Südwest 6.9 mph - N/A   Wolkig
2:30 AM 42.8 °F 40.1 °F 30.2 °F 61% 30.33 inch 6.2 mi Südwest 4.6 mph - N/A   Wolkig
3:00 AM 43 °F - 30 °F 48% 30.34 inch 28 mi Südwest 8.9 mph - -   Wolkig
3:00 AM 42.8 °F 40.1 °F 30.2 °F 61% 30.30 inch 6.2 mi Südwest 4.6 mph - N/A   Wolkig
3:30 AM 42.8 °F 39.3 °F 30.2 °F 61% 30.30 inch 6.2 mi Südwest 5.8 mph - N/A   Wolkig
4:00 AM 42 °F - 30 °F 51% 30.32 inch 28 mi Südwest 8.9 mph - -   Wolkig
4:00 AM 42.8 °F 38.6 °F 30.2 °F 61% 30.27 inch 6.2 mi Südwest 6.9 mph - N/A   Wolkig
4:30 AM 42.8 °F 38.0 °F 30.2 °F 61% 30.27 inch 6.2 mi Südwest 8.1 mph - N/A   Teils Wolkig
5:00 AM 43 °F - 30 °F 48% 30.29 inch 22 mi Südwest 11.2 mph - -   Wolkig
5:00 AM 42.8 °F 38.6 °F 30.2 °F 61% 30.24 inch - Südwest 6.9 mph - N/A   Heiter
5:30 AM 42.8 °F 38.0 °F 30.2 °F 61% 30.24 inch - West-Südwest 8.1 mph - N/A   Heiter
6:00 AM 43 °F - 31 °F 50% 30.27 inch 19 mi Südwest 11.2 mph - -   Bedeckt
6:00 AM 42.8 °F 38.0 °F 32.0 °F 66% 30.24 inch 6.2 mi West-Südwest 8.1 mph - N/A   Wolkig
6:30 AM 42.8 °F 38.0 °F 32.0 °F 66% 30.24 inch 6.2 mi Südwest 8.1 mph - N/A   Wolkig
7:00 AM 43 °F - 32 °F 54% 30.25 inch 16 mi Südwest 8.9 mph - -   Bedeckt
7:00 AM 42.8 °F 38.0 °F 32.0 °F 66% 30.21 inch 6.2 mi West-Südwest 8.1 mph - N/A   Bedeckt
7:30 AM 42.8 °F 39.3 °F 32.0 °F 66% 30.21 inch 6.2 mi Südwest 5.8 mph - N/A   Bedeckt
8:00 AM 45 °F - 34 °F 54% 30.25 inch 12 mi Südwest 11.2 mph - -   Bedeckt
8:00 AM 44.6 °F 40.7 °F 33.8 °F 66% 30.21 inch 6.2 mi Südwest 6.9 mph - N/A   Wolkig
8:30 AM 42.8 °F 38.0 °F 37.4 °F 81% 30.21 inch 3.7 mi West-Südwest 8.1 mph - N/A Regen Leichter Regen
9:00 AM 45 °F - 38 °F 68% 30.23 inch 7 mi West-Südwest 6.7 mph - - Regen Leichter Regen
9:00 AM 42.8 °F 38.0 °F 39.2 °F 87% 30.21 inch 6.2 mi West-Südwest 8.1 mph - N/A Regen Leichter Regen
9:30 AM 44.6 °F 40.7 °F 39.2 °F 81% 30.18 inch 6.2 mi Südwest 6.9 mph - N/A   Bedeckt
10:00 AM 45 °F - 42 °F 86% 30.22 inch 3 mi Südwest 8.9 mph - - Regen Leichter Regen
10:00 AM 44.6 °F 40.2 °F 41.0 °F 87% 30.18 inch 6.2 mi West-Südwest 8.1 mph - N/A Regen Leichter Regen
10:30 AM 44.6 °F 40.2 °F 41.0 °F 87% 30.18 inch 6.2 mi West-Südwest 8.1 mph - N/A   Bedeckt
11:00 AM 49 °F - 43 °F 71% 30.21 inch 7 mi West-Südwest 11.2 mph - - Regen Leichter Regen
11:00 AM 46.4 °F 42.4 °F 41.0 °F 81% 30.18 inch 6.2 mi West-Südwest 8.1 mph - N/A   Bedeckt
11:30 AM 48.2 °F - 42.8 °F 82% 30.18 inch 6.2 mi West-Südwest 10.4 mph - N/A   Bedeckt
12:00 PM 50.0 °F - 44.6 °F 82% 30.15 inch 6.2 mi West-Südwest 11.5 mph - N/A   Wolkig
12:30 PM 50.0 °F - 44.6 °F 82% 30.15 inch 6.2 mi West-Südwest 11.5 mph - N/A   Bedeckt
1:00 PM 53 °F - 43 °F 61% 30.18 inch 9 mi West-Südwest 13.4 mph - -   Bedeckt
1:00 PM 51.8 °F - 44.6 °F 76% 30.15 inch 6.2 mi West-Südwest 10.4 mph - N/A   Wolkig
1:30 PM 51.8 °F - 44.6 °F 76% 30.12 inch 6.2 mi West-Südwest 10.4 mph - N/A   Bedeckt
2:00 PM 55 °F - 42 °F 52% 30.16 inch 11 mi West 13.4 mph - -   Teils Wolkig
2:00 PM 53.6 °F - 44.6 °F 72% 30.12 inch 6.2 mi West-Südwest 10.4 mph - N/A Regen Leichte Regenschauer
2:30 PM 53.6 °F - 44.6 °F 72% 30.09 inch 6.2 mi West-Südwest 12.7 mph - N/A   Wolkig
3:00 PM 55 °F - 42 °F 50% 30.13 inch 9 mi West 13.4 mph - -   Bedeckt
3:00 PM 51.8 °F - 44.6 °F 76% 30.09 inch 6.2 mi West-Südwest 12.7 mph - N/A   Wolkig
3:30 PM 53.6 °F - 42.8 °F 67% 30.09 inch 6.2 mi West 12.7 mph - N/A Regen Leichte Regenschauer
4:00 PM 53.6 °F - 44.6 °F 72% 30.06 inch 6.2 mi West 17.3 mph - N/A   Wolkig
4:30 PM 53.6 °F - 42.8 °F 67% 30.06 inch 6.2 mi West 15.0 mph - N/A   Wolkig
5:00 PM 56 °F - 43 °F 52% 30.08 inch 12 mi West-Südwest 8.9 mph - -   Bedeckt
5:00 PM 53.6 °F - 42.8 °F 67% 30.04 inch 6.2 mi West-Südwest 12.7 mph - N/A   Wolkig
5:30 PM 55.4 °F - 42.8 °F 63% 30.04 inch 6.2 mi West-Südwest 11.5 mph - N/A   Wolkig
6:00 PM 56 °F - 42 °F 48% 30.03 inch 11 mi Südwest 11.2 mph - -   Bedeckt
6:00 PM 55.4 °F - 42.8 °F 63% 30.01 inch 6.2 mi West-Südwest 12.7 mph - N/A   Wolkig
6:30 PM 53.6 °F - 44.6 °F 72% 29.98 inch 6.2 mi West-Südwest 11.5 mph - N/A Regen Leichter Regen
7:00 PM 51 °F - 47 °F 83% 30.03 inch 3 mi West 11.2 mph - - Regen Leichter Regen
7:00 PM 51.8 °F - 46.4 °F 82% 29.98 inch 4.3 mi West 16.1 mph - N/A Regen Leichter Regen
7:30 PM 50.0 °F - 46.4 °F 87% 29.98 inch 6.2 mi West-Südwest 15.0 mph - N/A Regen Leichter Regen
8:00 PM 51 °F - 47 °F 80% 30.00 inch 5 mi West-Südwest 13.4 mph - - Regen Leichter Regen
8:00 PM 50.0 °F - 46.4 °F 87% 29.95 inch 6.2 mi West-Südwest 15.0 mph 28.8 mph N/A   Wolkig
8:30 PM 50.0 °F - 46.4 °F 87% 29.95 inch 6.2 mi West-Südwest 13.8 mph - N/A Regen Leichter Regen
9:00 PM 51 °F - 47 °F 80% 29.98 inch 6 mi Südwest 13.4 mph - - Regen Leichter Regen
9:00 PM 50.0 °F - 46.4 °F 87% 29.95 inch 6.2 mi West-Südwest 12.7 mph - N/A Regen Leichter Regen
9:30 PM 50.0 °F - 46.4 °F 87% 29.92 inch 6.2 mi West-Südwest 13.8 mph - N/A Regen Leichter Regen
10:00 PM 50 °F - 44 °F 75% 29.96 inch 11 mi West-Südwest 13.4 mph - -   Bedeckt
10:00 PM 50.0 °F - 44.6 °F 82% 29.92 inch 6.2 mi West 13.8 mph - N/A Regen Leichter Regen
10:30 PM 50.0 °F - 42.8 °F 76% 29.92 inch 6.2 mi West 17.3 mph - N/A Regen Leichter Regen
11:00 PM 49 °F - 44 °F 78% 29.94 inch 6 mi West-Südwest 11.2 mph - - Regen Leichter Regen
11:00 PM 50.0 °F - 42.8 °F 76% 29.89 inch 6.2 mi West-Südwest 15.0 mph - N/A   Bedeckt
11:30 PM 48.2 °F - 44.6 °F 87% 29.89 inch 6.2 mi West 16.1 mph - N/A Regen Leichte Regenschauer